Year,Month,Day,Hour,Minute,Value (Times are PST for temperature in C)
2012,09,15,00,00,10.00
2012,09,15,00,01,10.00
2012,09,15,00,02,9.90
2012,09,15,00,03,9.90
2012,09,15,00,04,9.90
2012,09,15,00,05,9.90
2012,09,15,00,06,9.80
2012,09,15,00,07,9.80
2012,09,15,00,08,9.80
2012,09,15,00,09,9.80
2012,09,15,00,10,9.70
2012,09,15,00,11,9.70
2012,09,15,00,12,9.70
2012,09,15,00,13,9.70
2012,09,15,00,14,9.70
2012,09,15,00,15,9.70
2012,09,15,00,16,9.70
2012,09,15,00,17,9.70
2012,09,15,00,18,9.70
2012,09,15,00,19,9.70
2012,09,15,00,20,9.70
2012,09,15,00,21,9.70
2012,09,15,00,22,9.60
2012,09,15,00,23,9.60
2012,09,15,00,24,9.60
2012,09,15,00,25,9.60
2012,09,15,00,26,9.70
2012,09,15,00,27,9.70
2012,09,15,00,28,9.70
2012,09,15,00,29,9.80
2012,09,15,00,30,9.80
2012,09,15,00,31,9.80
2012,09,15,00,32,9.90
2012,09,15,00,33,9.90
2012,09,15,00,34,9.90
2012,09,15,00,35,9.90
2012,09,15,00,36,9.90
2012,09,15,00,37,9.90
2012,09,15,00,38,9.90
2012,09,15,00,39,9.90
2012,09,15,00,40,9.90
2012,09,15,00,41,10.00
2012,09,15,00,42,10.00
2012,09,15,00,43,10.10
2012,09,15,00,44,10.10
2012,09,15,00,45,10.20
2012,09,15,00,46,10.20
2012,09,15,00,47,10.30
2012,09,15,00,48,10.30
2012,09,15,00,49,10.30
2012,09,15,00,50,10.30
2012,09,15,00,51,10.30
2012,09,15,00,52,10.30
2012,09,15,00,53,10.30
2012,09,15,00,54,10.30
2012,09,15,00,55,10.30
2012,09,15,00,56,10.30
2012,09,15,00,57,10.30
2012,09,15,00,58,10.20
2012,09,15,00,59,10.20
2012,09,15,01,00,10.20
2012,09,15,01,01,10.20
2012,09,15,01,02,10.20
2012,09,15,01,03,10.20
2012,09,15,01,04,10.20
2012,09,15,01,05,10.20
2012,09,15,01,06,10.20
2012,09,15,01,07,10.20
2012,09,15,01,08,10.10
2012,09,15,01,09,10.10
2012,09,15,01,10,10.00
2012,09,15,01,11,10.00
2012,09,15,01,12,9.90
2012,09,15,01,13,9.90
2012,09,15,01,14,9.90
2012,09,15,01,15,9.90
2012,09,15,01,16,9.80
2012,09,15,01,17,9.80
2012,09,15,01,18,9.70
2012,09,15,01,19,9.70
2012,09,15,01,20,9.70
2012,09,15,01,21,9.60
2012,09,15,01,22,9.60
2012,09,15,01,23,9.50
2012,09,15,01,24,9.40
2012,09,15,01,25,9.40
2012,09,15,01,26,9.40
2012,09,15,01,27,9.40
2012,09,15,01,28,9.40
2012,09,15,01,29,9.40
2012,09,15,01,30,9.40
2012,09,15,01,31,9.40
2012,09,15,01,32,9.40
2012,09,15,01,33,9.40
2012,09,15,01,34,9.40
2012,09,15,01,35,9.40
2012,09,15,01,36,9.40
2012,09,15,01,37,9.40
2012,09,15,01,38,9.30
2012,09,15,01,39,9.30
2012,09,15,01,40,9.30
2012,09,15,01,41,9.30
2012,09,15,01,42,9.30
2012,09,15,01,43,9.30
2012,09,15,01,44,9.20
2012,09,15,01,45,9.20
2012,09,15,01,46,9.20
2012,09,15,01,47,9.20
2012,09,15,01,48,9.20
2012,09,15,01,49,9.20
2012,09,15,01,50,9.20
2012,09,15,01,51,9.20
2012,09,15,01,52,9.20
2012,09,15,01,53,9.20
2012,09,15,01,54,9.20
2012,09,15,01,55,9.30
2012,09,15,01,56,9.30
2012,09,15,01,57,9.30
2012,09,15,01,58,9.30
2012,09,15,01,59,9.30
2012,09,15,02,00,9.30
2012,09,15,02,01,9.30
2012,09,15,02,02,9.30
2012,09,15,02,03,9.30
2012,09,15,02,04,9.30
2012,09,15,02,05,9.30
2012,09,15,02,06,9.30
2012,09,15,02,07,9.30
2012,09,15,02,08,9.30
2012,09,15,02,09,9.30
2012,09,15,02,10,9.20
2012,09,15,02,11,9.20
2012,09,15,02,12,9.20
2012,09,15,02,13,9.20
2012,09,15,02,14,9.20
2012,09,15,02,15,9.20
2012,09,15,02,16,9.20
2012,09,15,02,17,9.20
2012,09,15,02,18,9.20
2012,09,15,02,19,9.20
2012,09,15,02,20,9.20
2012,09,15,02,21,9.10
2012,09,15,02,22,9.10
2012,09,15,02,23,9.00
2012,09,15,02,24,9.00
2012,09,15,02,25,8.90
2012,09,15,02,26,8.90
2012,09,15,02,27,8.90
2012,09,15,02,28,8.80
2012,09,15,02,29,8.80
2012,09,15,02,30,8.80
2012,09,15,02,31,8.80
2012,09,15,02,32,8.80
2012,09,15,02,33,8.80
2012,09,15,02,34,8.80
2012,09,15,02,35,8.80
2012,09,15,02,36,8.80
2012,09,15,02,37,8.80
2012,09,15,02,38,8.80
2012,09,15,02,39,8.80
2012,09,15,02,40,8.80
2012,09,15,02,41,8.80
2012,09,15,02,42,8.80
2012,09,15,02,43,8.90
2012,09,15,02,44,8.90
2012,09,15,02,45,8.90
2012,09,15,02,46,8.90
2012,09,15,02,47,8.90
2012,09,15,02,48,8.80
2012,09,15,02,49,8.80
2012,09,15,02,50,8.70
2012,09,15,02,51,8.70
2012,09,15,02,52,8.60
2012,09,15,02,53,8.60
2012,09,15,02,54,8.60
2012,09,15,02,55,8.60
2012,09,15,02,56,8.60
2012,09,15,02,57,8.60
2012,09,15,02,58,8.60
2012,09,15,02,59,8.60
2012,09,15,03,00,8.50
2012,09,15,03,01,8.50
2012,09,15,03,02,8.50
2012,09,15,03,03,8.50
2012,09,15,03,04,8.50
2012,09,15,03,05,8.50
2012,09,15,03,06,8.50
2012,09,15,03,07,8.40
2012,09,15,03,08,8.40
2012,09,15,03,09,8.50
2012,09,15,03,10,8.50
2012,09,15,03,11,8.50
2012,09,15,03,12,8.50
2012,09,15,03,13,8.50
2012,09,15,03,14,8.50
2012,09,15,03,15,8.50
2012,09,15,03,16,8.50
2012,09,15,03,17,8.50
2012,09,15,03,18,8.50
2012,09,15,03,19,8.50
2012,09,15,03,20,8.50
2012,09,15,03,21,8.50
2012,09,15,03,22,8.50
2012,09,15,03,23,8.50
2012,09,15,03,24,8.50
2012,09,15,03,25,8.50
2012,09,15,03,26,8.50
2012,09,15,03,27,8.60
2012,09,15,03,28,8.60
2012,09,15,03,29,8.60
2012,09,15,03,30,8.60
2012,09,15,03,31,8.60
2012,09,15,03,32,8.60
2012,09,15,03,33,8.70
2012,09,15,03,34,8.70
2012,09,15,03,35,8.70
2012,09,15,03,36,8.70
2012,09,15,03,37,8.70
2012,09,15,03,38,8.70
2012,09,15,03,39,8.70
2012,09,15,03,40,8.70
2012,09,15,03,41,8.80
2012,09,15,03,42,8.80
2012,09,15,03,43,8.80
2012,09,15,03,44,8.80
2012,09,15,03,45,8.80
2012,09,15,03,46,8.80
2012,09,15,03,47,8.80
2012,09,15,03,48,8.80
2012,09,15,03,49,8.80
2012,09,15,03,50,8.80
2012,09,15,03,51,8.70
2012,09,15,03,52,8.70
2012,09,15,03,53,8.60
2012,09,15,03,54,8.60
2012,09,15,03,55,8.50
2012,09,15,03,56,8.40
2012,09,15,03,57,8.40
2012,09,15,03,58,8.40
2012,09,15,03,59,8.40
2012,09,15,04,00,8.40
2012,09,15,04,01,8.40
2012,09,15,04,02,8.40
2012,09,15,04,03,8.40
2012,09,15,04,04,8.40
2012,09,15,04,05,8.40
2012,09,15,04,06,8.40
2012,09,15,04,07,8.40
2012,09,15,04,08,8.40
2012,09,15,04,09,8.40
2012,09,15,04,10,8.30
2012,09,15,04,11,8.40
2012,09,15,04,12,8.40
2012,09,15,04,13,8.30
2012,09,15,04,14,8.40
2012,09,15,04,15,8.40
2012,09,15,04,16,8.40
2012,09,15,04,17,8.40
2012,09,15,04,18,8.40
2012,09,15,04,19,8.40
2012,09,15,04,20,8.40
2012,09,15,04,21,8.40
2012,09,15,04,22,8.40
2012,09,15,04,23,8.40
2012,09,15,04,24,8.40
2012,09,15,04,25,8.40
2012,09,15,04,26,8.40
2012,09,15,04,27,8.40
2012,09,15,04,28,8.40
2012,09,15,04,29,8.30
2012,09,15,04,30,8.30
2012,09,15,04,31,8.30
2012,09,15,04,32,8.30
2012,09,15,04,33,8.30
2012,09,15,04,34,8.30
2012,09,15,04,35,8.30
2012,09,15,04,36,8.30
2012,09,15,04,37,8.30
2012,09,15,04,38,8.30
2012,09,15,04,39,8.30
2012,09,15,04,40,8.30
2012,09,15,04,41,8.40
2012,09,15,04,42,8.30
2012,09,15,04,43,8.30
2012,09,15,04,44,8.30
2012,09,15,04,45,8.30
2012,09,15,04,46,8.30
2012,09,15,04,47,8.30
2012,09,15,04,48,8.30
2012,09,15,04,49,8.30
2012,09,15,04,50,8.30
2012,09,15,04,51,8.30
2012,09,15,04,52,8.30
2012,09,15,04,53,8.30
2012,09,15,04,54,8.30
2012,09,15,04,55,8.30
2012,09,15,04,56,8.30
2012,09,15,04,57,8.30
2012,09,15,04,58,8.30
2012,09,15,04,59,8.30
2012,09,15,05,00,8.30
2012,09,15,05,01,8.30
2012,09,15,05,02,8.30
2012,09,15,05,03,8.30
2012,09,15,05,04,8.40
2012,09,15,05,05,8.40
2012,09,15,05,06,8.40
2012,09,15,05,07,8.40
2012,09,15,05,08,8.40
2012,09,15,05,09,8.40
2012,09,15,05,10,8.40
2012,09,15,05,11,8.40
2012,09,15,05,12,8.40
2012,09,15,05,13,8.40
2012,09,15,05,14,8.40
2012,09,15,05,15,8.40
2012,09,15,05,16,8.30
2012,09,15,05,17,8.30
2012,09,15,05,18,8.30
2012,09,15,05,19,8.30
2012,09,15,05,20,8.30
2012,09,15,05,21,8.30
2012,09,15,05,22,8.30
2012,09,15,05,23,8.30
2012,09,15,05,24,8.30
2012,09,15,05,25,8.30
2012,09,15,05,26,8.30
2012,09,15,05,27,8.30
2012,09,15,05,28,8.30
2012,09,15,05,29,8.30
2012,09,15,05,30,8.30
2012,09,15,05,31,8.30
2012,09,15,05,32,8.30
2012,09,15,05,33,8.30
2012,09,15,05,34,8.40
2012,09,15,05,35,8.40
2012,09,15,05,36,8.40
2012,09,15,05,37,8.30
2012,09,15,05,38,8.30
2012,09,15,05,39,8.30
2012,09,15,05,40,8.30
2012,09,15,05,41,8.20
2012,09,15,05,42,8.20
2012,09,15,05,43,8.10
2012,09,15,05,44,8.10
2012,09,15,05,45,8.10
2012,09,15,05,46,8.00
2012,09,15,05,47,8.00
2012,09,15,05,48,8.00
2012,09,15,05,49,8.00
2012,09,15,05,50,7.90
2012,09,15,05,51,7.90
2012,09,15,05,52,7.90
2012,09,15,05,53,7.90
2012,09,15,05,54,7.90
2012,09,15,05,55,7.90
2012,09,15,05,56,7.90
2012,09,15,05,57,7.90
2012,09,15,05,58,7.90
2012,09,15,05,59,7.90
2012,09,15,06,00,7.90
2012,09,15,06,01,7.90
2012,09,15,06,02,7.90
2012,09,15,06,03,7.90
2012,09,15,06,04,7.90
2012,09,15,06,05,7.90
2012,09,15,06,06,7.90
2012,09,15,06,07,7.90
2012,09,15,06,08,7.90
2012,09,15,06,09,7.90
2012,09,15,06,10,7.90
2012,09,15,06,11,7.90
2012,09,15,06,12,7.80
2012,09,15,06,13,7.80
2012,09,15,06,14,7.80
2012,09,15,06,15,7.80
2012,09,15,06,16,7.80
2012,09,15,06,17,7.80
2012,09,15,06,18,7.70
2012,09,15,06,19,7.70
2012,09,15,06,20,7.70
2012,09,15,06,21,7.70
2012,09,15,06,22,7.70
2012,09,15,06,23,7.70
2012,09,15,06,24,7.70
2012,09,15,06,25,7.70
2012,09,15,06,26,7.70
2012,09,15,06,27,7.70
2012,09,15,06,28,7.70
2012,09,15,06,29,7.70
2012,09,15,06,30,7.70
2012,09,15,06,31,7.70
2012,09,15,06,32,7.60
2012,09,15,06,33,7.70
2012,09,15,06,34,7.70
2012,09,15,06,35,7.70
2012,09,15,06,36,7.70
2012,09,15,06,37,7.70
2012,09,15,06,38,7.70
2012,09,15,06,39,7.70
2012,09,15,06,40,7.70
2012,09,15,06,41,7.80
2012,09,15,06,42,7.80
2012,09,15,06,43,7.80
2012,09,15,06,44,7.80
2012,09,15,06,45,7.80
2012,09,15,06,46,7.80
2012,09,15,06,47,7.80
2012,09,15,06,48,7.80
2012,09,15,06,49,7.80
2012,09,15,06,50,7.80
2012,09,15,06,51,7.90
2012,09,15,06,52,7.90
2012,09,15,06,53,7.90
2012,09,15,06,54,8.00
2012,09,15,06,55,8.00
2012,09,15,06,56,8.00
2012,09,15,06,57,8.00
2012,09,15,06,58,8.00
2012,09,15,06,59,8.10
2012,09,15,07,00,8.10
2012,09,15,07,01,8.10
2012,09,15,07,02,8.10
2012,09,15,07,03,8.10
2012,09,15,07,04,8.10
2012,09,15,07,05,8.20
2012,09,15,07,06,8.20
2012,09,15,07,07,8.20
2012,09,15,07,08,8.20
2012,09,15,07,09,8.30
2012,09,15,07,10,8.30
2012,09,15,07,11,8.30
2012,09,15,07,12,8.30
2012,09,15,07,13,8.30
2012,09,15,07,14,8.30
2012,09,15,07,15,8.30
2012,09,15,07,16,8.30
2012,09,15,07,17,8.30
2012,09,15,07,18,8.30
2012,09,15,07,19,8.40
2012,09,15,07,20,8.40
2012,09,15,07,21,8.40
2012,09,15,07,22,8.40
2012,09,15,07,23,8.40
2012,09,15,07,24,8.40
2012,09,15,07,25,8.40
2012,09,15,07,26,8.40
2012,09,15,07,27,8.40
2012,09,15,07,28,8.40
2012,09,15,07,29,8.40
2012,09,15,07,30,8.40
2012,09,15,07,31,8.30
2012,09,15,07,32,8.30
2012,09,15,07,33,8.40
2012,09,15,07,34,8.40
2012,09,15,07,35,8.40
2012,09,15,07,36,8.40
2012,09,15,07,37,8.40
2012,09,15,07,38,8.40
2012,09,15,07,39,8.40
2012,09,15,07,40,8.40
2012,09,15,07,41,8.40
2012,09,15,07,42,8.40
2012,09,15,07,43,8.40
2012,09,15,07,44,8.40
2012,09,15,07,45,8.40
2012,09,15,07,46,8.40
2012,09,15,07,47,8.40
2012,09,15,07,48,8.40
2012,09,15,07,49,8.40
2012,09,15,07,50,8.40
2012,09,15,07,51,8.40
2012,09,15,07,52,8.40
2012,09,15,07,53,8.40
2012,09,15,07,54,8.40
2012,09,15,07,55,8.40
2012,09,15,07,56,8.40
2012,09,15,07,57,8.50
2012,09,15,07,58,8.50
2012,09,15,07,59,8.60
2012,09,15,08,00,8.60
2012,09,15,08,01,8.70
2012,09,15,08,02,8.70
2012,09,15,08,03,8.70
2012,09,15,08,04,8.80
2012,09,15,08,05,8.80
2012,09,15,08,06,8.80
2012,09,15,08,07,8.80
2012,09,15,08,08,8.90
2012,09,15,08,09,8.90
2012,09,15,08,10,8.90
2012,09,15,08,11,8.90
2012,09,15,08,12,8.90
2012,09,15,08,13,8.90
2012,09,15,08,14,8.90
2012,09,15,08,15,8.80
2012,09,15,08,16,8.80
2012,09,15,08,17,8.80
2012,09,15,08,18,8.90
2012,09,15,08,19,8.90
2012,09,15,08,20,8.90
2012,09,15,08,21,9.00
2012,09,15,08,22,9.00
2012,09,15,08,23,9.10
2012,09,15,08,24,9.10
2012,09,15,08,25,9.20
2012,09,15,08,26,9.20
2012,09,15,08,27,9.30
2012,09,15,08,28,9.40
2012,09,15,08,29,9.50
2012,09,15,08,30,9.60
2012,09,15,08,31,9.70
2012,09,15,08,32,9.80
2012,09,15,08,33,9.90
2012,09,15,08,34,10.00
2012,09,15,08,35,10.10
2012,09,15,08,36,10.20
2012,09,15,08,37,10.30
2012,09,15,08,38,10.50
2012,09,15,08,39,10.60
2012,09,15,08,40,10.70
2012,09,15,08,41,10.80
2012,09,15,08,42,10.90
2012,09,15,08,43,11.00
2012,09,15,08,44,11.10
2012,09,15,08,45,11.30
2012,09,15,08,46,11.40
2012,09,15,08,47,11.60
2012,09,15,08,48,11.80
2012,09,15,08,49,12.00
2012,09,15,08,50,12.20
2012,09,15,08,51,12.30
2012,09,15,08,52,12.50
2012,09,15,08,53,12.70
2012,09,15,08,54,12.80
2012,09,15,08,55,13.00
2012,09,15,08,56,13.20
2012,09,15,08,57,13.30
2012,09,15,08,58,13.40
2012,09,15,08,59,13.60
2012,09,15,09,00,13.70
2012,09,15,09,01,13.80
2012,09,15,09,02,14.00
2012,09,15,09,03,14.10
2012,09,15,09,04,14.20
2012,09,15,09,05,14.40
2012,09,15,09,06,14.50
2012,09,15,09,07,14.70
2012,09,15,09,08,14.80
2012,09,15,09,09,14.90
2012,09,15,09,10,15.00
2012,09,15,09,11,15.10
2012,09,15,09,12,15.20
2012,09,15,09,13,15.20
2012,09,15,09,14,15.20
2012,09,15,09,15,15.30
2012,09,15,09,16,15.30
2012,09,15,09,17,15.40
2012,09,15,09,18,15.40
2012,09,15,09,19,15.30
2012,09,15,09,20,15.30
2012,09,15,09,21,15.30
2012,09,15,09,22,15.40
2012,09,15,09,23,15.40
2012,09,15,09,24,15.40
2012,09,15,09,25,15.40
2012,09,15,09,26,15.50
2012,09,15,09,27,15.60
2012,09,15,09,28,15.70
2012,09,15,09,29,15.80
2012,09,15,09,30,15.90
2012,09,15,09,31,15.90
2012,09,15,09,32,16.00
2012,09,15,09,33,16.10
2012,09,15,09,34,16.10
2012,09,15,09,35,16.20
2012,09,15,09,36,16.30
2012,09,15,09,37,16.30
2012,09,15,09,38,16.30
2012,09,15,09,39,16.30
2012,09,15,09,40,16.30
2012,09,15,09,41,16.30
2012,09,15,09,42,16.30
2012,09,15,09,43,16.30
2012,09,15,09,44,16.30
2012,09,15,09,45,16.30
2012,09,15,09,46,16.20
2012,09,15,09,47,16.20
2012,09,15,09,48,16.20
2012,09,15,09,49,16.10
2012,09,15,09,50,16.10
2012,09,15,09,51,16.10
2012,09,15,09,52,16.10
2012,09,15,09,53,16.10
2012,09,15,09,54,16.10
2012,09,15,09,55,16.10
2012,09,15,09,56,16.10
2012,09,15,09,57,16.10
2012,09,15,09,58,16.20
2012,09,15,09,59,16.30
2012,09,15,10,00,16.30
2012,09,15,10,01,16.40
2012,09,15,10,02,16.40
2012,09,15,10,03,16.50
2012,09,15,10,04,16.50
2012,09,15,10,05,16.60
2012,09,15,10,06,16.60
2012,09,15,10,07,16.60
2012,09,15,10,08,16.70
2012,09,15,10,09,16.70
2012,09,15,10,10,16.80
2012,09,15,10,11,16.80
2012,09,15,10,12,16.80
2012,09,15,10,13,16.80
2012,09,15,10,14,16.80
2012,09,15,10,15,16.80
2012,09,15,10,16,16.80
2012,09,15,10,17,16.70
2012,09,15,10,18,16.70
2012,09,15,10,19,16.60
2012,09,15,10,20,16.60
2012,09,15,10,21,16.50
2012,09,15,10,22,16.40
2012,09,15,10,23,16.30
2012,09,15,10,24,16.20
2012,09,15,10,25,16.20
2012,09,15,10,26,16.30
2012,09,15,10,27,16.30
2012,09,15,10,28,16.40
2012,09,15,10,29,16.40
2012,09,15,10,30,16.50
2012,09,15,10,31,16.60
2012,09,15,10,32,16.70
2012,09,15,10,33,16.80
2012,09,15,10,34,16.80
2012,09,15,10,35,16.90
2012,09,15,10,36,17.00
2012,09,15,10,37,17.10
2012,09,15,10,38,17.20
2012,09,15,10,39,17.20
2012,09,15,10,40,17.10
2012,09,15,10,41,17.00
2012,09,15,10,42,16.90
2012,09,15,10,43,16.70
2012,09,15,10,44,16.50
2012,09,15,10,45,16.40
2012,09,15,10,46,16.20
2012,09,15,10,47,16.20
2012,09,15,10,48,16.00
2012,09,15,10,49,15.90
2012,09,15,10,50,15.80
2012,09,15,10,51,15.70
2012,09,15,10,52,15.60
2012,09,15,10,53,15.50
2012,09,15,10,54,15.50
2012,09,15,10,55,15.40
2012,09,15,10,56,15.40
2012,09,15,10,57,15.30
2012,09,15,10,58,15.30
2012,09,15,10,59,15.20
2012,09,15,11,00,15.20
2012,09,15,11,01,15.20
2012,09,15,11,02,15.20
2012,09,15,11,03,15.20
2012,09,15,11,04,15.20
2012,09,15,11,05,15.20
2012,09,15,11,06,15.20
2012,09,15,11,07,15.20
2012,09,15,11,08,15.20
2012,09,15,11,09,15.30
2012,09,15,11,10,15.40
2012,09,15,11,11,15.40
2012,09,15,11,12,15.50
2012,09,15,11,13,15.50
2012,09,15,11,14,15.60
2012,09,15,11,15,15.60
2012,09,15,11,16,15.60
2012,09,15,11,17,15.70
2012,09,15,11,18,15.70
2012,09,15,11,19,15.70
2012,09,15,11,20,15.70
2012,09,15,11,21,15.80
2012,09,15,11,22,15.80
2012,09,15,11,23,15.80
2012,09,15,11,24,15.80
2012,09,15,11,25,15.80
2012,09,15,11,26,15.90
2012,09,15,11,27,15.90
2012,09,15,11,28,15.90
2012,09,15,11,29,15.90
2012,09,15,11,30,15.90
2012,09,15,11,31,15.90
2012,09,15,11,32,15.90
2012,09,15,11,33,15.90
2012,09,15,11,34,15.90
2012,09,15,11,35,15.90
2012,09,15,11,36,15.80
2012,09,15,11,37,15.80
2012,09,15,11,38,15.80
2012,09,15,11,39,15.70
2012,09,15,11,40,15.60
2012,09,15,11,41,15.60
2012,09,15,11,42,15.60
2012,09,15,11,43,15.60
2012,09,15,11,44,15.70
2012,09,15,11,45,15.70
2012,09,15,11,46,15.60
2012,09,15,11,47,15.60
2012,09,15,11,48,15.60
2012,09,15,11,49,15.60
2012,09,15,11,50,15.60
2012,09,15,11,51,15.60
2012,09,15,11,52,15.60
2012,09,15,11,53,15.70
2012,09,15,11,54,15.70
2012,09,15,11,55,15.80
2012,09,15,11,56,15.80
2012,09,15,11,57,15.80
2012,09,15,11,58,15.80
2012,09,15,11,59,15.70
2012,09,15,12,00,15.60
2012,09,15,12,01,15.50
2012,09,15,12,02,15.50
2012,09,15,12,03,15.50
2012,09,15,12,04,15.50
2012,09,15,12,05,15.60
2012,09,15,12,06,15.60
2012,09,15,12,07,15.70
2012,09,15,12,08,15.70
2012,09,15,12,09,15.80
2012,09,15,12,10,15.80
2012,09,15,12,11,15.90
2012,09,15,12,12,16.00
2012,09,15,12,13,16.00
2012,09,15,12,14,16.00
2012,09,15,12,15,16.00
2012,09,15,12,16,16.00
2012,09,15,12,17,16.00
2012,09,15,12,18,16.00
2012,09,15,12,19,16.00
2012,09,15,12,20,16.10
2012,09,15,12,21,16.10
2012,09,15,12,22,16.10
2012,09,15,12,23,16.20
2012,09,15,12,24,16.20
2012,09,15,12,25,16.20
2012,09,15,12,26,16.30
2012,09,15,12,27,16.30
2012,09,15,12,28,16.30
2012,09,15,12,29,16.30
2012,09,15,12,30,16.40
2012,09,15,12,31,16.40
2012,09,15,12,32,16.40
2012,09,15,12,33,16.40
2012,09,15,12,34,16.50
2012,09,15,12,35,16.50
2012,09,15,12,36,16.50
2012,09,15,12,37,16.40
2012,09,15,12,38,16.40
2012,09,15,12,39,16.30
2012,09,15,12,40,16.30
2012,09,15,12,41,16.30
2012,09,15,12,42,16.30
2012,09,15,12,43,16.20
2012,09,15,12,44,16.20
2012,09,15,12,45,16.10
2012,09,15,12,46,16.10
2012,09,15,12,47,16.10
2012,09,15,12,48,16.10
2012,09,15,12,49,16.00
2012,09,15,12,50,16.00
2012,09,15,12,51,15.90
2012,09,15,12,52,15.80
2012,09,15,12,53,15.80
2012,09,15,12,54,15.80
2012,09,15,12,55,15.80
2012,09,15,12,56,15.80
2012,09,15,12,57,15.80
2012,09,15,12,58,15.80
2012,09,15,12,59,15.90
2012,09,15,13,00,15.90
2012,09,15,13,01,16.00
2012,09,15,13,02,16.10
2012,09,15,13,03,16.10
2012,09,15,13,04,16.10
2012,09,15,13,05,16.10
2012,09,15,13,06,16.10
2012,09,15,13,07,16.10
2012,09,15,13,08,16.10
2012,09,15,13,09,16.10
2012,09,15,13,10,16.10
2012,09,15,13,11,16.10
2012,09,15,13,12,16.10
2012,09,15,13,13,16.10
2012,09,15,13,14,16.10
2012,09,15,13,15,16.10
2012,09,15,13,16,16.20
2012,09,15,13,17,16.20
2012,09,15,13,18,16.30
2012,09,15,13,19,16.30
2012,09,15,13,20,16.30
2012,09,15,13,21,16.40
2012,09,15,13,22,16.40
2012,09,15,13,23,16.40
2012,09,15,13,24,16.40
2012,09,15,13,25,16.40
2012,09,15,13,26,16.40
2012,09,15,13,27,16.40
2012,09,15,13,28,16.40
2012,09,15,13,29,16.40
2012,09,15,13,30,16.40
2012,09,15,13,31,16.30
2012,09,15,13,32,16.30
2012,09,15,13,33,16.30
2012,09,15,13,34,16.30
2012,09,15,13,35,16.40
2012,09,15,13,36,16.50
2012,09,15,13,37,16.50
2012,09,15,13,38,16.50
2012,09,15,13,39,16.60
2012,09,15,13,40,16.60
2012,09,15,13,41,16.60
2012,09,15,13,42,16.60
2012,09,15,13,43,16.60
2012,09,15,13,44,16.50
2012,09,15,13,45,16.50
2012,09,15,13,46,16.40
2012,09,15,13,47,16.40
2012,09,15,13,48,16.40
2012,09,15,13,49,16.40
2012,09,15,13,50,16.40
2012,09,15,13,51,16.40
2012,09,15,13,52,16.40
2012,09,15,13,53,16.40
2012,09,15,13,54,16.50
2012,09,15,13,55,16.50
2012,09,15,13,56,16.40
2012,09,15,13,57,16.30
2012,09,15,13,58,16.30
2012,09,15,13,59,16.10
2012,09,15,14,00,16.10
2012,09,15,14,01,16.00
2012,09,15,14,02,16.00
2012,09,15,14,03,15.90
2012,09,15,14,04,15.80
2012,09,15,14,05,15.80
2012,09,15,14,06,15.80
2012,09,15,14,07,15.80
2012,09,15,14,08,15.80
2012,09,15,14,09,15.80
2012,09,15,14,10,15.80
2012,09,15,14,11,15.80
2012,09,15,14,12,15.80
2012,09,15,14,13,15.90
2012,09,15,14,14,15.90
2012,09,15,14,15,15.90
2012,09,15,14,16,15.90
2012,09,15,14,17,16.00
2012,09,15,14,18,16.00
2012,09,15,14,19,16.10
2012,09,15,14,20,16.10
2012,09,15,14,21,16.00
2012,09,15,14,22,16.00
2012,09,15,14,23,16.00
2012,09,15,14,24,16.00
2012,09,15,14,25,16.00
2012,09,15,14,26,16.00
2012,09,15,14,27,16.00
2012,09,15,14,28,16.10
2012,09,15,14,29,16.20
2012,09,15,14,30,16.30
2012,09,15,14,31,16.30
2012,09,15,14,32,16.50
2012,09,15,14,33,16.50
2012,09,15,14,34,16.60
2012,09,15,14,35,16.60
2012,09,15,14,36,16.60
2012,09,15,14,37,16.60
2012,09,15,14,38,16.70
2012,09,15,14,39,16.70
2012,09,15,14,40,16.80
2012,09,15,14,41,16.80
2012,09,15,14,42,16.80
2012,09,15,14,43,16.80
2012,09,15,14,44,16.80
2012,09,15,14,45,16.70
2012,09,15,14,46,16.60
2012,09,15,14,47,16.60
2012,09,15,14,48,16.70
2012,09,15,14,49,16.70
2012,09,15,14,50,16.80
2012,09,15,14,51,16.90
2012,09,15,14,52,17.00
2012,09,15,14,53,17.00
2012,09,15,14,54,17.10
2012,09,15,14,55,17.10
2012,09,15,14,56,17.10
2012,09,15,14,57,17.00
2012,09,15,14,58,16.90
2012,09,15,14,59,16.80
2012,09,15,15,00,16.70
2012,09,15,15,01,16.60
2012,09,15,15,02,16.50
2012,09,15,15,03,16.50
2012,09,15,15,04,16.50
2012,09,15,15,05,16.50
2012,09,15,15,06,16.50
2012,09,15,15,07,16.50
2012,09,15,15,08,16.50
2012,09,15,15,09,16.50
2012,09,15,15,10,16.50
2012,09,15,15,11,16.50
2012,09,15,15,12,16.50
2012,09,15,15,13,16.50
2012,09,15,15,14,16.40
2012,09,15,15,15,16.40
2012,09,15,15,16,16.40
2012,09,15,15,17,16.30
2012,09,15,15,18,16.20
2012,09,15,15,19,16.10
2012,09,15,15,20,16.10
2012,09,15,15,21,16.10
2012,09,15,15,22,16.00
2012,09,15,15,23,15.90
2012,09,15,15,24,15.80
2012,09,15,15,25,15.80
2012,09,15,15,26,15.90
2012,09,15,15,27,15.90
2012,09,15,15,28,15.90
2012,09,15,15,29,15.90
2012,09,15,15,30,15.90
2012,09,15,15,31,15.80
2012,09,15,15,32,15.70
2012,09,15,15,33,15.70
2012,09,15,15,34,15.60
2012,09,15,15,35,15.60
2012,09,15,15,36,15.70
2012,09,15,15,37,15.70
2012,09,15,15,38,15.80
2012,09,15,15,39,15.90
2012,09,15,15,40,15.90
2012,09,15,15,41,15.90
2012,09,15,15,42,15.90
2012,09,15,15,43,16.00
2012,09,15,15,44,16.10
2012,09,15,15,45,16.10
2012,09,15,15,46,16.10
2012,09,15,15,47,16.10
2012,09,15,15,48,16.00
2012,09,15,15,49,16.00
2012,09,15,15,50,15.90
2012,09,15,15,51,15.90
2012,09,15,15,52,15.90
2012,09,15,15,53,15.90
2012,09,15,15,54,15.90
2012,09,15,15,55,15.90
2012,09,15,15,56,15.90
2012,09,15,15,57,15.90
2012,09,15,15,58,15.90
2012,09,15,15,59,15.90
2012,09,15,16,00,15.90
2012,09,15,16,01,15.90
2012,09,15,16,02,15.90
2012,09,15,16,03,15.90
2012,09,15,16,04,15.90
2012,09,15,16,05,16.00
2012,09,15,16,06,16.00
2012,09,15,16,07,16.10
2012,09,15,16,08,16.20
2012,09,15,16,09,16.20
2012,09,15,16,10,16.20
2012,09,15,16,11,16.30
2012,09,15,16,12,16.30
2012,09,15,16,13,16.30
2012,09,15,16,14,16.40
2012,09,15,16,15,16.40
2012,09,15,16,16,16.40
2012,09,15,16,17,16.50
2012,09,15,16,18,16.50
2012,09,15,16,19,16.50
2012,09,15,16,20,16.50
2012,09,15,16,21,16.60
2012,09,15,16,22,16.60
2012,09,15,16,23,16.60
2012,09,15,16,24,16.60
2012,09,15,16,25,16.60
2012,09,15,16,26,16.60
2012,09,15,16,27,16.60
2012,09,15,16,28,16.60
2012,09,15,16,29,16.50
2012,09,15,16,30,16.50
2012,09,15,16,31,16.50
2012,09,15,16,32,16.50
2012,09,15,16,33,16.50
2012,09,15,16,34,16.50
2012,09,15,16,35,16.50
2012,09,15,16,36,16.30
2012,09,15,16,37,16.20
2012,09,15,16,38,16.10
2012,09,15,16,39,16.00
2012,09,15,16,40,15.90
2012,09,15,16,41,15.80
2012,09,15,16,42,15.80
2012,09,15,16,43,15.80
2012,09,15,16,44,15.80
2012,09,15,16,45,15.80
2012,09,15,16,46,15.80
2012,09,15,16,47,15.70
2012,09,15,16,48,15.70
2012,09,15,16,49,15.70
2012,09,15,16,50,15.70
2012,09,15,16,51,15.70
2012,09,15,16,52,15.70
2012,09,15,16,53,15.60
2012,09,15,16,54,15.60
2012,09,15,16,55,15.60
2012,09,15,16,56,15.60
2012,09,15,16,57,15.60
2012,09,15,16,58,15.60
2012,09,15,16,59,15.50
2012,09,15,17,00,15.40
2012,09,15,17,01,15.30
2012,09,15,17,02,15.20
2012,09,15,17,03,15.20
2012,09,15,17,04,15.10
2012,09,15,17,05,15.10
2012,09,15,17,06,15.00
2012,09,15,17,07,15.00
2012,09,15,17,08,14.90
2012,09,15,17,09,14.90
2012,09,15,17,10,14.80
2012,09,15,17,11,14.80
2012,09,15,17,12,14.90
2012,09,15,17,13,14.90
2012,09,15,17,14,15.00
2012,09,15,17,15,15.00
2012,09,15,17,16,15.00
2012,09,15,17,17,15.00
2012,09,15,17,18,15.00
2012,09,15,17,19,14.90
2012,09,15,17,20,14.90
2012,09,15,17,21,14.90
2012,09,15,17,22,14.80
2012,09,15,17,23,14.80
2012,09,15,17,24,14.80
2012,09,15,17,25,14.80
2012,09,15,17,26,14.80
2012,09,15,17,27,14.70
2012,09,15,17,28,14.70
2012,09,15,17,29,14.70
2012,09,15,17,30,14.60
2012,09,15,17,31,14.60
2012,09,15,17,32,14.60
2012,09,15,17,33,14.70
2012,09,15,17,34,14.70
2012,09,15,17,35,14.70
2012,09,15,17,36,14.80
2012,09,15,17,37,14.80
2012,09,15,17,38,14.90
2012,09,15,17,39,15.00
2012,09,15,17,40,15.00